www.pogodaiklimat.ru
Время
(UTC), дата
20:53 19.11
21:53 19.11
22:53 19.11
23:36 19.11
23:53 19.11
00:53 19.11
01:53 19.11
02:53 19.11
03:53 19.11
04:53 20.11
05:49 20.11
05:53 20.11
06:53 20.11
07:53 20.11
08:53 20.11
09:53 20.11
10:53 20.11
11:53 20.11
12:53 20.11
13:53 20.11
14:53 20.11
15:53 20.11
16:53 20.11
17:53 20.11
18:53 20.11
19:05 20.11
19:53 20.11
20:53 20.11
21:53 20.11
22:53 20.11
23:53 20.11
00:53 20.11
01:53 20.11
02:53 20.11
03:36 20.11
03:53 20.11
04:53 21.11
05:53 21.11
06:53 21.11
07:53 21.11
08:53 21.11
09:53 21.11
10:53 21.11
11:53 21.11
12:53 21.11
13:53 21.11
14:53 21.11
15:53 21.11
Ветер
(напр.,м/с)
Видим. Явления Облачность Т
(С)
Тd
(С)
f
(%)
Тe
(С)
Тes
(С)
Комфортность P
(гПа)
Po
(гПа)
Тmin
(С)
Tmax
(С)
R
(мм)
R24
(мм)
S
(см)
0 11 км 10/10 990 м +4.4 +0.6 76 +4 +4 1012.1 980.4
0 11 км 10/10 630 м +3.9 +0.6 79 +3 +3 1012.9 981.0
0 11 км 10/10 570 м +4.4 +0.6 76 +4 +4 1013.4 981.7 +3.3 +5.0
0 11 км 10/10 750 м +3.9 +0.6 79 +3 +3 982.0
0 11 км 10/10 1140 м +3.9 +0.6 79 +3 +3 1014.1 982.0
0 11 км 10/10 1110 м +2.8 0.0 82 +2 +2 1014.4 982.3
0 10 км дымка 10/10 1080 м +1.7 0.0 88 +1 +1 1015.1 983.3
З 2 11 км 10/10 1050 м +2.8 0.0 82 -1 -1 1015.5 983.6
З 2 11 км 10/10 990 м +2.8 0.0 82 -1 -1 1015.9 984.0
З 1 10 км мгла 10/10 960 м +2.8 0.0 82 0 0 1016.5 984.6 +1.7 +4.4
ЮЗ 1 10 км дымка 10/10 840 м +2.0 0.0 87 -1 -1 985.0
З 2 10 км мгла 10/10 840 м +2.8 0.0 82 -1 -1 1017.0 985.3
ЮЗ 1 10 км дымка 10/10 810 м +2.2 0.0 85 -0 -0 1017.9 985.9
З 1 10 км мгла 10/10 660 м +2.8 0.0 82 0 0 1018.6 986.6
З 3 10 км мгла 10/10 600 м +2.8 0.0 82 -1 -1 1019.4 987.2
0 10 км мгла 10/10 630 м +2.8 0.0 82 +2 +2 1019.7 987.6
З 2 10 км мгла 10/10 540 м +2.8 0.0 82 -1 -1 1021.0 988.9 +2.2 +2.8
З 1 10 км мгла 10/10 720 м +2.8 0.0 82 0 0 1021.6 989.5
0 6 км мгла 10/10 810 м +3.3 +0.6 82 +2 +2 1022.2 989.9
З 2 8 км мгла 10/10 780 м +3.3 0.0 79 -0 -0 1022.5 990.2
З 3 10 км мгла 10/10 780 м +3.9 +0.6 79 0 0 1023.4 991.2
З 1 10 км мгла 10/10 780 м +4.4 +0.6 76 +2 +2 1023.1 990.9
З 3 11 км 10/10 840 м +5.6 +1.1 73 +2 +2 1022.9 990.9 +2.8 +5.6
ЮЗ 2 11 км 10/10 840 м +5.6 +1.1 73 +3 +3 1022.7 990.5
Ю 3 10 км мгла 10/10 870 м +5.6 +1.7 76 +2 +2 1022.9 990.9
Ю 3 11 км 10/10 900 м +5.6 +1.7 76 +2 +2 990.5
Ю 2 10 км мгла 10/10 930 м +5.6 +1.7 76 +3 +3 1023.0 990.9
Ю 3 10 км мгла 10/10 840 м +5.6 +1.7 76 +2 +2 1023.2 991.2
Ю 3 11 км 10/10 750 м +5.0 +1.7 79 +2 +2 1023.3 991.2
Ю 3 11 км 10/10 780 м +5.0 +1.7 79 +2 +2 1023.6 991.5 +5.0 +5.6
Ю 3 11 км 10/10 780 м +5.0 +1.7 79 +1 +1 1023.5 991.5
Ю 2 11 км 10/10 780 м +5.0 +1.7 79 +2 +2 1023.5 991.2
Ю 2 13 км 10/10 840 м +5.0 +1.1 76 +2 +2 1023.3 991.2
Ю 4 11 км 10/10 810 м +4.4 +1.1 79 0 0 1022.9 990.9
Ю 4 11 км 5/5 750 м +4.4 +1.1 79 0 0 990.2
Ю 3 11 км 2/2 750 м +3.9 +0.6 79 -0 -0 1022.2 990.2
ЮВ 3 11 км 10/0 3000 м
[средняя]
+4.4 +1.1 79 0 0 1021.3 989.2 +3.3 +5.0
ЮВ 4 11 км 10/0 3000 м
[средняя]
+4.4 +0.6 76 0 0 1020.6 988.6
ЮВ 4 10 км мгла 10/0 3000 м
[средняя]
+4.4 +1.1 79 -0 -0 1020.1 987.9
ЮВ 4 10 км мгла 10/0 3000 м
[средняя]
+4.4 +1.1 79 -0 -0 1019.5 987.6
Ю 7
{10}
10 км мгла 10/0 3300 м
[средняя]
+4.4 +1.1 79 -2 -2 1018.1 986.3
Ю 6
{11}
10 км мгла 2/0 3000 м
[средняя]
+5.0 +1.7 79 -0 -0 1017.4 985.6
Ю 7 11 км 2/0 3300 м
[средняя]
+5.0 +1.7 79 -1 -1 1015.8 984.0 +3.9 +5.0
Ю 6 11 км 8/2 1950 м
[средняя]
+5.6 +2.2 79 0 0 1015.1 983.3
Ю 7
{11}
6 км слабый дождь 10/0 2100 м
[средняя]
+5.6 +2.8 82 0 0 1014.1 982.3
Ю 6 8 км слабый дождь 10/0 2100 м
[средняя]
+6.1 +3.3 82 +1 +1 1013.5 981.7
Ю 8
{12}
8 км слабый дождь, дымка 10/0 2550 м
[средняя]
+6.1 +3.9 86 0 +1 1011.3 979.7
Ю 8
{11}
6 км слабый дождь 10/8 1410 м
[средняя]
+6.7 +3.9 82 +1 +1 1009.0 977.4
Местоположение метеостанции Capital City Airport: широта 42.7803 долгота -84.5789 высота над уровнем моря 262 м.
В архиве по умолчанию представлена погода в Лансинге за последние 1-2 суток. Обновление информации о фактической погоде в базе происходит ежечасно! Архивные данные за месяц целиком и за предыдущие месяцы Вы можете получить, выбрав интересующий диапазон дат из раскрывающегося списка и нажав кнопку "Ввод!".
Внимание! Архив погоды МЕТАР в базе сайта по станциям, не включенным в климатический монитор, хранится не более 60 дней. Нет смысла пытаться выбрать более раннюю дату.
*Определитесь, кто Вы:
Внимание! Время в таблицах - всемирное. Для получения местного времени необходимо прибавить поправку, которая равна ч.
Смотрите также архив погоды в соседних городах и на ближайших метеорологических станциях:
Партнеры нашего сайта:      
Пояснения к столбцам:
  • Ветер - указаны скорость ветра в м/с - средняя за 10 мин, порывы в срок и между сроками (в фигурных скобках) и направление, откуда дует ветер: С - северный,
  • СВ - северо-восточный, В - восточный, ЮВ - юго-восточный, Ю - южный, ЮЗ - юго-западный, З - западный, СЗ - северо-западный.
  • Видимость - горизонтальная дальность видимости в метрах или километрах. При видимости от 1 до 10 км при отсутствии осадков обычно наблюдается дымка, при ухудшении видимости до 1 км и менее - туман. В сухую погоду видимость может ухудшаться дымом, пылью или мглою.
  • Явления - указаны атмосферные явления, наблюдавшиеся в срок или в последний час перед сроком; фигурными скобками обозначены явления, наблюдавшиеся между сроками (за 1-3 часа до срока); квадратными скобками обозначены град или гололедные отложения с указанием их диаметра в мм.
  • Облачность - указаны через наклонную черту общая и нижняя облачность в баллах и высота нижней границы облаков в метрах; квадратными скобками обозначены формы облаков: Ci - перистые, Cs - перисто-слоистые, Cc - перисто-кучевые, Ac - высококучевые, As - высокослоистые, Sc - слоисто-кучевые, Ns - слоисто-дождевые, Cu - кучевые, Cb - кучево-дождевые. Подробнее классификацию облаков см. в Атласе облаков (PDF).
  • T - Температура воздуха - температура, измеренная на высоте 2 м над землей.
  • Td - Температура точки росы - температура, при понижении до которой содержащийся в воздухе водяной пар достигнет насыщения.
  • f - Относительная влажность воздуха - влажноcть воздуха, измеренная на высоте 2 м над землей.
  • Te - Эффективная температура - температура, которую ощущает одетый по сезону человек в тени. Характеристика душности погоды. При расчете учитывается влияние влажности воздуха и скорости ветра на теплоощущения человека.
  • Tes - Эффективная температура на солнце - температура, которую ощущает человек, с поправкой на солнечный нагрев. Характеристика знойности погоды. Зависит от высоты солнца над горизонтом, облачности и скорости ветра. Ночью, в пасмурную погоду, а также при ветре 12 м/с и более поправка равна нулю.
  • P - Атмосферное давление - приведенное к уровню моря атмосферное давление.
  • Po - Атмосферное давление - измеренное на уровне метеостанции атмосферное давление.
  • Tmin - Минимальная температура - минимум температуры воздуха на высоте 2 м над землей.
  • Tmax - Максимальная температура - максимум температуры воздуха на высоте 2 м над землей.
  • R - Количество осадков - Количество выпавших осадков за период времени, мм. При наведении курсора мыши на число - период времени, за который выпало указанное количество осадков.
  • R24 - Количество осадков - Количество выпавших осадков за 24 часа, мм.
  • S - Снежный покров - Высота снежного покрова, см. При наведении курсора мыши на число - состояние снежного покрова и степень покрытия местности в баллах.